Location: Asheville, NC
(35.6000°N, 82.5500°W)
Time: 00:34:06
(UTC-04:00)

CUTE-I - Pass Details

Date: 12 March 2018
Orbit: 811 x 825 km, 98.7° (Epoch: 18 June)

Event Time Altitude Azimuth Distance (km) Brightness Sun altitude
Rises 06:49:37 0° 30° (NNE) 3,365 ? -12.1°
Reaches altitude 10° 06:52:33 10° 46° (NE) 2,427 ? -11.5°
Maximum altitude 06:56:35 21° 95° (E) 1,755 ? -10.7°
Drops below altitude 10° 07:00:35 10° 143° (SE) 2,412 ? -9.9°
Sets 07:03:28 0° 159° (SSE) 3,338 ? -9.3°
